LSGG Airport Information

Runway Information
Runway 05 Length 12795 ft width 164 ft
Elevation 1411 ft Threshold 1082 ft Heading 46
Runway 23 Length 12795 ft Width 164 ft
Elevation 1365 ft Threshold 0 ft Heading 226
Runway 05L Length 2700 ft width 98 ft
Elevation 1378 ft Threshold 613 ft Heading 46
Runway 23R Length 2700 ft Width 98 ft
Elevation 1393 ft Threshold 994 ft Heading 226
Airport Frequencies
Type APP Name APP Frequency 120.3 MHZ
Type ARR Name ARR Frequency 136.25 MHZ
Type ATIS Name ATIS Frequency 135.575 MHZ
Type DEP Name DEP Frequency 119.525 MHZ
Type GND Name GND Frequency 121.675 MHZ
Type GTE Name APN Frequency 121.75 MHZ
Type TWR Name TWR Frequency 118.7 MHZ
Airport Navaids
Type NDB Name Gland Frequency 375 KHZ
Type VOR-DME Name Geneva Cointrin Frequency 115750 KHZ
Type VOR-DME Name Passeiry Frequency 116600 KHZ
Airport Weather Information & NOTAM
ADDS - METARS form results

(0808 UTC 21 April 2019)
Data provider http://aviationweather.gov/metar/data/
 
METAR text: LSGG 210750Z VRB01KT CAVOK 13/04 Q1019 NOSIG
Conditions at: LSGG (GENEVA/COINTRIN , CH) observed 0750 UTC 21 April 2019
Temperature: 13.0°C (55°F)
Dewpoint: 4.0°C (39°F) [RH = 54%]
Pressure (altimeter): 30.09 inches Hg (1019.0 mb)
Winds: variable direction winds at 1 MPH (1 knots; 0.5 m/s)
Visibility: 6 or more miles (10+ km)
Ceiling: ceiling and visibility are OK
Clouds: unknown
Weather: no significant weather observed at this time

METAR text: LSGG 210720Z VRB01KT CAVOK 12/03 Q1019 NOSIG
Conditions at: LSGG (GENEVA/COINTRIN , CH) observed 0720 UTC 21 April 2019
Temperature: 12.0°C (54°F)
Dewpoint: 3.0°C (37°F) [RH = 54%]
Pressure (altimeter): 30.09 inches Hg (1019.0 mb)
Winds: variable direction winds at 1 MPH (1 knots; 0.5 m/s)
Visibility: 6 or more miles (10+ km)
Ceiling: ceiling and visibility are OK
Clouds: unknown
Weather: no significant weather observed at this time

Forecast for: LSGG (GENEVA/COINTRIN , CH)
Text: TAF LSGG 210525Z 2106/2212 VRB03KT CAVOK TX22/2115Z TN08/2106Z TN08/2205Z
Forecast period: 0600 UTC 21 April 2019 to 1200 UTC 22 April 2019
Forecast type: FROM: standard forecast or significant change
Winds: variable direction winds at 3 MPH (3 knots; 1.5 m/s)
Visibility: 6 or more miles 10+ km)
Ceiling: unknown
Clouds: missing
Weather: no significant weather forecast for this period